Location: Passau
(48.5721°N, 13.4363°E)
Time: 12:45:44
(UTC+02:00)

ISS - Pass Details

Date: 27 September 2020
Orbit: 418 x 420 km, 51.6° (Epoch: 21 October)

Event Time Altitude Azimuth Distance (km) Brightness Sun altitude
Rises 21:03:45 0° 288° (WNW) 2,370 1.6 -22.0°
Reaches altitude 10° 21:05:52 10° 292° (WNW) 1,505 0.2 -22.3°
Enters shadow 21:08:35 49° 323° (NW) 551 -2.9 -22.7°
